O3B FM3                 
1 40079U 14038A   19263.65368630 -.00000019  00000-0  00000-0 0  9995
2 40079   0.0405   3.7902 0004105 207.0747 149.1156  5.00115885 90075
O3B FM7                 
1 40080U 14038B   19263.40054643 -.00000019  00000-0  00000+0 0  9995
2 40080   0.0364   0.4937 0002132 132.6384 226.8903  5.00116282 94980
O3B FM6                 
1 40081U 14038C   19264.22599042 -.00000019  00000-0  00000+0 0  9994
2 40081   0.0400   5.2642 0002583 175.1834 179.5567  5.00115108 95022
O3B FM8                 
1 40082U 14038D   19263.07997077 -.00000019  00000-0  00000-0 0  9998
2 40082   0.0376   8.1298 0002671 169.7362 182.1397  5.00115180 94915
FREGAT R/B              
1 40083U 14038E   19263.77416882 -.00000016  00000-0  00000-0 0  9993
2 40083   0.1470  27.4716 0011206 217.4220 114.9948  5.21126319 98928